• In Latvia
  • List of Countries
  • For 7 days
  • Water Temperature
  • Satellite Maps
  • Weather Map
  • Weather Widgets
  • user-avatar
    Login

    Hourly Weather Oran

    Today, 19 January, Thursday

    Time Temperature Precipitation Wind Pressure Humidity
    00:00 +4°C° 0 mm 6 mps 748 mmHg 77%
    01:00 +5°C° 0.1 mm 5 mps 748 mmHg 78%
    02:00 +5°C° 0.1 mm 5 mps 748 mmHg 79%
    03:00 +5°C° 0.1 mm 4 mps 748 mmHg 80%
    04:00 +6°C° 0 mm 4 mps 747 mmHg 80%
    05:00 +6°C° 0 mm 4 mps 747 mmHg 79%
    06:00 +6°C° 0 mm 4 mps 747 mmHg 80%
    07:00 +7°C° 0.3 mm 5 mps 747 mmHg 74%
    08:00 +8°C° 0.3 mm 6 mps 747 mmHg 68%
    09:00 +9°C° 0.3 mm 6 mps 747 mmHg 62%
    10:00 +10°C° 0.2 mm 6 mps 747 mmHg 58%
    11:00 +11°C° 0.2 mm 6 mps 747 mmHg 55%
    12:00 +13°C° 0.2 mm 6 mps 747 mmHg 51%
    13:00 +13°C° 0.1 mm 6 mps 747 mmHg 52%
    14:00 +11°C° 0.1 mm 6 mps 747 mmHg 52%
    15:00 +11°C° 0.1 mm 6 mps 747 mmHg 53%
    16:00 +10°C° 0.1 mm 5 mps 747 mmHg 61%
    17:00 +10°C° 0.1 mm 4 mps 747 mmHg 68%
    18:00 +8°C° 0.1 mm 4 mps 748 mmHg 76%
    19:00 +8°C° 0.2 mm 3 mps 748 mmHg 79%
    20:00 +8°C° 0.2 mm 3 mps 749 mmHg 83%
    21:00 +8°C° 0.2 mm 3 mps 749 mmHg 86%
    22:00 +8°C° 0.4 mm 3 mps 749 mmHg 87%
    23:00 +7°C° 0.4 mm 2 mps 749 mmHg 88%

    Tomorrow, 20 January, Friday

    Time Temperature Precipitation Wind Pressure Humidity
    00:00 +7°C° 0.4 mm 2 mps 749 mmHg 88%
    01:00 +7°C° 0.4 mm 2 mps 749 mmHg 89%
    02:00 +7°C° 0.4 mm 2 mps 749 mmHg 90%
    03:00 +7°C° 0.4 mm 2 mps 749 mmHg 90%
    04:00 +6°C° 0.8 mm 2 mps 749 mmHg 91%
    05:00 +7°C° 0.8 mm 1 mps 749 mmHg 92%
    06:00 +7°C° 0.8 mm 1 mps 749 mmHg 93%
    07:00 +7°C° 0.9 mm 1 mps 749 mmHg 92%
    08:00 +7°C° 0.9 mm 2 mps 749 mmHg 92%
    09:00 +7°C° 0.9 mm 2 mps 750 mmHg 91%
    10:00 +8°C° 0.4 mm 2 mps 750 mmHg 86%
    11:00 +8°C° 0.4 mm 3 mps 750 mmHg 81%
    12:00 +9°C° 0.4 mm 3 mps 750 mmHg 76%
    13:00 +8°C° 0.3 mm 4 mps 749 mmHg 76%
    14:00 +8°C° 0.3 mm 4 mps 749 mmHg 76%
    15:00 +8°C° 0.3 mm 4 mps 749 mmHg 76%
    16:00 +7°C° 0.3 mm 4 mps 749 mmHg 80%
    17:00 +7°C° 0.3 mm 4 mps 750 mmHg 83%
    18:00 +6°C° 0.3 mm 4 mps 750 mmHg 87%
    19:00 +7°C° 0.3 mm 3 mps 750 mmHg 88%
    20:00 +7°C° 0.3 mm 3 mps 750 mmHg 88%
    21:00 +7°C° 0.3 mm 3 mps 751 mmHg 88%
    22:00 +7°C° 0.2 mm 3 mps 751 mmHg 89%
    23:00 +7°C° 0.2 mm 3 mps 750 mmHg 89%

    Day after tomorrow, 21 January, Saturday

    Time Temperature Precipitation Wind Pressure Humidity
    00:00 +5°C° 0.2 mm 3 mps 750 mmHg 89%
    01:00 +6°C° 0.4 mm 4 mps 750 mmHg 90%
    02:00 +6°C° 0.4 mm 5 mps 750 mmHg 90%
    03:00 +6°C° 0.4 mm 5 mps 750 mmHg 90%
    04:00 +5°C° 0.6 mm 6 mps 750 mmHg 90%
    05:00 +5°C° 0.6 mm 7 mps 749 mmHg 90%
    06:00 +5°C° 0.6 mm 7 mps 749 mmHg 90%
    07:00 +6°C° 0.5 mm 8 mps 749 mmHg 87%
    08:00 +6°C° 0.5 mm 9 mps 749 mmHg 85%
    09:00 +7°C° 0.5 mm 10 mps 749 mmHg 82%
    10:00 +7°C° 0.6 mm 11 mps 749 mmHg 80%
    11:00 +8°C° 0.6 mm 12 mps 748 mmHg 79%
    12:00 +8°C° 0.6 mm 12 mps 748 mmHg 77%
    13:00 +8°C° 1.9 mm 12 mps 748 mmHg 79%
    14:00 +8°C° 1.9 mm 13 mps 747 mmHg 81%
    15:00 +7°C° 1.9 mm 13 mps 747 mmHg 83%
    16:00 +7°C° 3.2 mm 12 mps 747 mmHg 86%
    17:00 +7°C° 3.2 mm 11 mps 747 mmHg 89%
    18:00 +6°C° 3.2 mm 10 mps 747 mmHg 93%
    19:00 +7°C° 2.8 mm 10 mps 747 mmHg 92%
    20:00 +7°C° 2.8 mm 10 mps 747 mmHg 92%
    21:00 +7°C° 2.8 mm 10 mps 748 mmHg 92%
    22:00 +7°C° 1.8 mm 10 mps 748 mmHg 92%
    23:00 +7°C° 1.8 mm 10 mps 748 mmHg 93%

    22 January, Sunday

    Time Temperature Precipitation Wind Pressure Humidity
    00:00 +7°C° 1.8 mm 11 mps 748 mmHg 94%
    01:00 +8°C° 2 mm 11 mps 748 mmHg 91%
    02:00 +8°C° 2 mm 12 mps 748 mmHg 88%
    03:00 +8°C° 2 mm 13 mps 748 mmHg 85%
    04:00 +8°C° 0.7 mm 12 mps 748 mmHg 84%
    05:00 +8°C° 0.7 mm 11 mps 748 mmHg 83%
    06:00 +8°C° 0.7 mm 10 mps 749 mmHg 82%
    07:00 +8°C° 0.4 mm 10 mps 749 mmHg 80%
    08:00 +8°C° 0.4 mm 9 mps 750 mmHg 79%
    09:00 +9°C° 0.4 mm 8 mps 751 mmHg 78%
    10:00 +10°C° 0.3 mm 8 mps 751 mmHg 76%
    11:00 +10°C° 0.3 mm 8 mps 751 mmHg 73%
    12:00 +11°C° 0.3 mm 8 mps 751 mmHg 71%
    13:00 +11°C° 0.2 mm 8 mps 751 mmHg 70%
    14:00 +11°C° 0.2 mm 8 mps 751 mmHg 69%
    15:00 +11°C° 0.2 mm 8 mps 751 mmHg 68%
    16:00 +10°C° 0.2 mm 7 mps 751 mmHg 73%
    17:00 +9°C° 0.2 mm 6 mps 751 mmHg 77%
    18:00 +9°C° 0.2 mm 6 mps 752 mmHg 82%
    19:00 +8°C° 0.2 mm 5 mps 752 mmHg 83%
    20:00 +8°C° 0.2 mm 5 mps 753 mmHg 84%
    21:00 +8°C° 0.2 mm 4 mps 753 mmHg 86%
    22:00 +8°C° 0.2 mm 4 mps 753 mmHg 86%
    23:00 +8°C° 0.2 mm 4 mps 753 mmHg 86%

    23 January, Monday

    Time Temperature Precipitation Wind Pressure Humidity
    00:00 +8°C° 0.2 mm 4 mps 753 mmHg 85%
    01:00 +8°C° 0.3 mm 4 mps 753 mmHg 86%
    02:00 +7°C° 0.3 mm 4 mps 753 mmHg 86%
    03:00 +7°C° 0.3 mm 4 mps 753 mmHg 87%
    04:00 +7°C° 0.2 mm 5 mps 753 mmHg 86%
    05:00 +7°C° 0.2 mm 5 mps 753 mmHg 85%
    06:00 +7°C° 0.2 mm 5 mps 753 mmHg 84%
    07:00 +8°C° 0.4 mm 5 mps 754 mmHg 80%
    08:00 +9°C° 0.4 mm 5 mps 754 mmHg 75%
    09:00 +9°C° 0.4 mm 6 mps 754 mmHg 70%
    10:00 +10°C° 0.4 mm 6 mps 754 mmHg 67%
    11:00 +11°C° 0.4 mm 7 mps 754 mmHg 64%
    12:00 +14°C° 0.4 mm 7 mps 754 mmHg 62%
    13:00 +12°C° 0.6 mm 7 mps 754 mmHg 63%
    14:00 +12°C° 0.6 mm 7 mps 753 mmHg 63%
    15:00 +12°C° 0.6 mm 7 mps 753 mmHg 64%
    16:00 +11°C° 0.5 mm 6 mps 753 mmHg 70%
    17:00 +10°C° 0.5 mm 5 mps 754 mmHg 75%
    18:00 +10°C° 0.5 mm 4 mps 754 mmHg 81%
    19:00 +8°C° 0.5 mm 4 mps 754 mmHg 82%
    20:00 +8°C° 0.5 mm 4 mps 755 mmHg 83%
    21:00 +9°C° 0.5 mm 3 mps 755 mmHg 84%
    22:00 +8°C° 0.4 mm 4 mps 755 mmHg 85%
    23:00 +7°C° 0.4 mm 4 mps 755 mmHg 85%

    24 January, Tuesday

    Time Temperature Precipitation Wind Pressure Humidity
    00:00 +7°C° 0.4 mm 4 mps 755 mmHg 86%
    01:00 +7°C° 0.3 mm 4 mps 755 mmHg 86%
    02:00 +7°C° 0.3 mm 4 mps 755 mmHg 87%
    03:00 +7°C° 0.3 mm 4 mps 755 mmHg 87%
    04:00 +7°C° 0.3 mm 4 mps 756 mmHg 87%
    05:00 +7°C° 0.3 mm 4 mps 756 mmHg 87%
    06:00 +7°C° 0.3 mm 4 mps 756 mmHg 87%
    07:00 +8°C° 0.2 mm 5 mps 756 mmHg 84%
    08:00 +8°C° 0.2 mm 5 mps 757 mmHg 81%
    09:00 +9°C° 0.2 mm 5 mps 757 mmHg 78%
    10:00 +10°C° 0.1 mm 6 mps 757 mmHg 75%
    11:00 +11°C° 0.1 mm 6 mps 757 mmHg 72%
    12:00 +11°C° 0.1 mm 7 mps 757 mmHg 68%
    13:00 +11°C° 0.1 mm 7 mps 757 mmHg 67%
    14:00 +12°C° 0.1 mm 8 mps 757 mmHg 66%
    15:00 +12°C° 0.1 mm 8 mps 756 mmHg 65%
    16:00 +11°C° 0 mm 7 mps 757 mmHg 69%
    17:00 +10°C° 0 mm 6 mps 757 mmHg 73%
    18:00 +8°C° 0 mm 6 mps 757 mmHg 78%
    19:00 +8°C° 0 mm 6 mps 757 mmHg 77%
    20:00 +8°C° 0 mm 6 mps 758 mmHg 77%
    21:00 +8°C° 0 mm 5 mps 758 mmHg 77%
    22:00 +7°C° 0 mm 5 mps 758 mmHg 77%
    23:00 +7°C° 0 mm 5 mps 758 mmHg 76%
    Show more